Year,Month,Day,Hour,Minute,Value (Times are PST for temperature in C)
2016,04,19,00,00,15.80
2016,04,19,00,01,15.80
2016,04,19,00,02,15.80
2016,04,19,00,03,15.80
2016,04,19,00,04,15.80
2016,04,19,00,05,15.90
2016,04,19,00,06,16.00
2016,04,19,00,07,16.10
2016,04,19,00,08,16.10
2016,04,19,00,09,16.20
2016,04,19,00,10,16.30
2016,04,19,00,11,16.40
2016,04,19,00,12,16.40
2016,04,19,00,13,16.50
2016,04,19,00,14,16.60
2016,04,19,00,15,16.70
2016,04,19,00,16,16.70
2016,04,19,00,17,16.80
2016,04,19,00,18,16.80
2016,04,19,00,19,16.80
2016,04,19,00,20,16.80
2016,04,19,00,21,16.80
2016,04,19,00,22,16.80
2016,04,19,00,23,16.80
2016,04,19,00,24,16.70
2016,04,19,00,25,16.70
2016,04,19,00,26,16.60
2016,04,19,00,27,16.40
2016,04,19,00,28,16.30
2016,04,19,00,29,16.20
2016,04,19,00,30,16.00
2016,04,19,00,31,15.90
2016,04,19,00,32,15.70
2016,04,19,00,33,15.60
2016,04,19,00,34,15.50
2016,04,19,00,35,15.50
2016,04,19,00,36,15.50
2016,04,19,00,37,15.50
2016,04,19,00,38,15.50
2016,04,19,00,39,15.50
2016,04,19,00,40,15.50
2016,04,19,00,41,15.50
2016,04,19,00,42,15.50
2016,04,19,00,43,15.50
2016,04,19,00,44,15.50
2016,04,19,00,45,15.50
2016,04,19,00,46,15.40
2016,04,19,00,47,15.30
2016,04,19,00,48,15.20
2016,04,19,00,49,15.20
2016,04,19,00,50,15.10
2016,04,19,00,51,15.10
2016,04,19,00,52,15.00
2016,04,19,00,53,15.00
2016,04,19,00,54,14.90
2016,04,19,00,55,14.90
2016,04,19,00,56,14.90
2016,04,19,00,57,14.80
2016,04,19,00,58,14.80
2016,04,19,00,59,14.80
2016,04,19,01,00,14.80
2016,04,19,01,01,14.80
2016,04,19,01,02,14.70
2016,04,19,01,03,14.70
2016,04,19,01,04,14.70
2016,04,19,01,05,14.60
2016,04,19,01,06,14.60
2016,04,19,01,07,14.60
2016,04,19,01,08,14.60
2016,04,19,01,09,14.60
2016,04,19,01,10,14.60
2016,04,19,01,11,14.60
2016,04,19,01,12,14.60
2016,04,19,01,13,14.50
2016,04,19,01,14,14.50
2016,04,19,01,15,14.50
2016,04,19,01,16,14.40
2016,04,19,01,17,14.30
2016,04,19,01,18,14.20
2016,04,19,01,19,14.20
2016,04,19,01,20,14.10
2016,04,19,01,21,14.00
2016,04,19,01,22,14.00
2016,04,19,01,23,13.90
2016,04,19,01,24,13.80
2016,04,19,01,25,13.70
2016,04,19,01,26,13.70
2016,04,19,01,27,13.70
2016,04,19,01,28,13.60
2016,04,19,01,29,13.70
2016,04,19,01,30,13.70
2016,04,19,01,31,13.70
2016,04,19,01,32,13.70
2016,04,19,01,33,13.70
2016,04,19,01,34,13.70
2016,04,19,01,35,13.70
2016,04,19,01,36,13.70
2016,04,19,01,37,13.70
2016,04,19,01,38,13.70
2016,04,19,01,39,13.70
2016,04,19,01,40,13.70
2016,04,19,01,41,13.70
2016,04,19,01,42,13.60
2016,04,19,01,43,13.60
2016,04,19,01,44,13.50
2016,04,19,01,45,13.50
2016,04,19,01,46,13.40
2016,04,19,01,47,13.30
2016,04,19,01,48,13.30
2016,04,19,01,49,13.30
2016,04,19,01,50,13.30
2016,04,19,01,51,13.30
2016,04,19,01,52,13.20
2016,04,19,01,53,13.20
2016,04,19,01,54,13.20
2016,04,19,01,55,13.20
2016,04,19,01,56,13.20
2016,04,19,01,57,13.10
2016,04,19,01,58,13.10
2016,04,19,01,59,13.10
2016,04,19,02,00,13.10
2016,04,19,02,01,13.10
2016,04,19,02,02,13.10
2016,04,19,02,03,13.00
2016,04,19,02,04,13.00
2016,04,19,02,05,13.00
2016,04,19,02,06,12.90
2016,04,19,02,07,12.90
2016,04,19,02,08,12.90
2016,04,19,02,09,12.90
2016,04,19,02,10,12.90
2016,04,19,02,11,12.80
2016,04,19,02,12,12.80
2016,04,19,02,13,12.80
2016,04,19,02,14,12.80
2016,04,19,02,15,12.70
2016,04,19,02,16,12.70
2016,04,19,02,17,12.70
2016,04,19,02,18,12.60
2016,04,19,02,19,12.60
2016,04,19,02,20,12.60
2016,04,19,02,21,12.60
2016,04,19,02,22,12.60
2016,04,19,02,23,12.60
2016,04,19,02,24,12.60
2016,04,19,02,25,12.70
2016,04,19,02,26,12.70
2016,04,19,02,27,12.70
2016,04,19,02,28,12.80
2016,04,19,02,29,12.80
2016,04,19,02,30,12.90
2016,04,19,02,31,13.00
2016,04,19,02,32,13.00
2016,04,19,02,33,13.00
2016,04,19,02,34,13.10
2016,04,19,02,35,13.10
2016,04,19,02,36,13.10
2016,04,19,02,37,13.10
2016,04,19,02,38,13.10
2016,04,19,02,39,13.10
2016,04,19,02,40,13.00
2016,04,19,02,41,13.00
2016,04,19,02,42,13.00
2016,04,19,02,43,13.00
2016,04,19,02,44,13.00
2016,04,19,02,45,13.00
2016,04,19,02,46,13.00
2016,04,19,02,47,13.10
2016,04,19,02,48,13.10
2016,04,19,02,49,13.10
2016,04,19,02,50,13.10
2016,04,19,02,51,13.10
2016,04,19,02,52,13.20
2016,04,19,02,53,13.20
2016,04,19,02,54,13.30
2016,04,19,02,55,13.30
2016,04,19,02,56,13.40
2016,04,19,02,57,13.50
2016,04,19,02,58,13.60
2016,04,19,02,59,13.60
2016,04,19,03,00,13.70
2016,04,19,03,01,13.70
2016,04,19,03,02,13.60
2016,04,19,03,03,13.50
2016,04,19,03,04,13.50
2016,04,19,03,05,13.40
2016,04,19,03,06,13.30
2016,04,19,03,07,13.20
2016,04,19,03,08,13.10
2016,04,19,03,09,13.00
2016,04,19,03,10,13.00
2016,04,19,03,11,12.90
2016,04,19,03,12,12.80
2016,04,19,03,13,12.80
2016,04,19,03,14,12.70
2016,04,19,03,15,12.70
2016,04,19,03,16,12.60
2016,04,19,03,17,12.60
2016,04,19,03,18,12.50
2016,04,19,03,19,12.50
2016,04,19,03,20,12.50
2016,04,19,03,21,12.50
2016,04,19,03,22,12.40
2016,04,19,03,23,12.40
2016,04,19,03,24,12.40
2016,04,19,03,25,12.40
2016,04,19,03,26,12.40
2016,04,19,03,27,12.40
2016,04,19,03,28,12.30
2016,04,19,03,29,12.30
2016,04,19,03,30,12.30
2016,04,19,03,31,12.30
2016,04,19,03,32,12.30
2016,04,19,03,33,12.30
2016,04,19,03,34,12.30
2016,04,19,03,35,12.30
2016,04,19,03,36,12.30
2016,04,19,03,37,12.30
2016,04,19,03,38,12.30
2016,04,19,03,39,12.30
2016,04,19,03,40,12.30
2016,04,19,03,41,12.40
2016,04,19,03,42,12.40
2016,04,19,03,43,12.40
2016,04,19,03,44,12.50
2016,04,19,03,45,12.50
2016,04,19,03,46,12.50
2016,04,19,03,47,12.50
2016,04,19,03,48,12.50
2016,04,19,03,49,12.40
2016,04,19,03,50,12.40
2016,04,19,03,51,12.50
2016,04,19,03,52,12.50
2016,04,19,03,53,12.50
2016,04,19,03,54,12.50
2016,04,19,03,55,12.60
2016,04,19,03,56,12.60
2016,04,19,03,57,12.60
2016,04,19,03,58,12.60
2016,04,19,03,59,12.60
2016,04,19,04,00,12.60
2016,04,19,04,01,12.60
2016,04,19,04,02,12.50
2016,04,19,04,03,12.50
2016,04,19,04,04,12.50
2016,04,19,04,05,12.50
2016,04,19,04,06,12.50
2016,04,19,04,07,12.50
2016,04,19,04,08,12.50
2016,04,19,04,09,12.50
2016,04,19,04,10,12.50
2016,04,19,04,11,12.50
2016,04,19,04,12,12.50
2016,04,19,04,13,12.50
2016,04,19,04,14,12.60
2016,04,19,04,15,12.60
2016,04,19,04,16,12.60
2016,04,19,04,17,12.60
2016,04,19,04,18,12.60
2016,04,19,04,19,12.60
2016,04,19,04,20,12.60
2016,04,19,04,21,12.70
2016,04,19,04,22,12.70
2016,04,19,04,23,12.80
2016,04,19,04,24,12.80
2016,04,19,04,25,12.80
2016,04,19,04,26,12.90
2016,04,19,04,27,12.90
2016,04,19,04,28,12.90
2016,04,19,04,29,12.90
2016,04,19,04,30,12.90
2016,04,19,04,31,12.90
2016,04,19,04,32,12.80
2016,04,19,04,33,12.80
2016,04,19,04,34,12.80
2016,04,19,04,35,12.80
2016,04,19,04,36,12.80
2016,04,19,04,37,12.80
2016,04,19,04,38,12.80
2016,04,19,04,39,12.80
2016,04,19,04,40,12.80
2016,04,19,04,41,12.80
2016,04,19,04,42,12.90
2016,04,19,04,43,13.00
2016,04,19,04,44,13.10
2016,04,19,04,45,13.20
2016,04,19,04,46,13.20
2016,04,19,04,47,13.30
2016,04,19,04,48,13.30
2016,04,19,04,49,13.20
2016,04,19,04,50,13.20
2016,04,19,04,51,13.20
2016,04,19,04,52,13.20
2016,04,19,04,53,13.20
2016,04,19,04,54,13.10
2016,04,19,04,55,13.10
2016,04,19,04,56,13.10
2016,04,19,04,57,13.20
2016,04,19,04,58,13.20
2016,04,19,04,59,13.20
2016,04,19,05,00,13.30
2016,04,19,05,01,13.30
2016,04,19,05,02,13.30
2016,04,19,05,03,13.40
2016,04,19,05,04,13.50
2016,04,19,05,05,13.60
2016,04,19,05,06,13.70
2016,04,19,05,07,13.80
2016,04,19,05,08,13.90
2016,04,19,05,09,14.00
2016,04,19,05,10,14.10
2016,04,19,05,11,14.20
2016,04,19,05,12,14.20
2016,04,19,05,13,14.20
2016,04,19,05,14,14.20
2016,04,19,05,15,14.20
2016,04,19,05,16,14.20
2016,04,19,05,17,14.00
2016,04,19,05,18,13.90
2016,04,19,05,19,13.80
2016,04,19,05,20,13.60
2016,04,19,05,21,13.50
2016,04,19,05,22,13.40
2016,04,19,05,23,13.30
2016,04,19,05,24,13.30
2016,04,19,05,25,13.20
2016,04,19,05,26,13.20
2016,04,19,05,27,13.20
2016,04,19,05,28,13.20
2016,04,19,05,29,13.20
2016,04,19,05,30,13.20
2016,04,19,05,31,13.20
2016,04,19,05,32,13.20
2016,04,19,05,33,13.20
2016,04,19,05,34,13.20
2016,04,19,05,35,13.10
2016,04,19,05,36,13.10
2016,04,19,05,37,13.10
2016,04,19,05,38,13.10
2016,04,19,05,39,13.10
2016,04,19,05,40,13.10
2016,04,19,05,41,13.10
2016,04,19,05,42,13.10
2016,04,19,05,43,13.00
2016,04,19,05,44,13.00
2016,04,19,05,45,13.00
2016,04,19,05,46,13.00
2016,04,19,05,47,13.00
2016,04,19,05,48,13.00
2016,04,19,05,49,13.00
2016,04,19,05,50,13.00
2016,04,19,05,51,13.00
2016,04,19,05,52,13.00
2016,04,19,05,53,13.10
2016,04,19,05,54,13.10
2016,04,19,05,55,13.20
2016,04,19,05,56,13.30
2016,04,19,05,57,13.40
2016,04,19,05,58,13.60
2016,04,19,05,59,13.70
2016,04,19,06,00,13.70
2016,04,19,06,01,13.80
2016,04,19,06,02,13.90
2016,04,19,06,03,14.00
2016,04,19,06,04,14.00
2016,04,19,06,05,14.10
2016,04,19,06,06,14.20
2016,04,19,06,07,14.20
2016,04,19,06,08,14.20
2016,04,19,06,09,14.30
2016,04,19,06,10,14.40
2016,04,19,06,11,14.40
2016,04,19,06,12,14.50
2016,04,19,06,13,14.50
2016,04,19,06,14,14.50
2016,04,19,06,15,14.50
2016,04,19,06,16,14.60
2016,04,19,06,17,14.60
2016,04,19,06,18,14.60
2016,04,19,06,19,14.60
2016,04,19,06,20,14.60
2016,04,19,06,21,14.60
2016,04,19,06,22,14.60
2016,04,19,06,23,14.60
2016,04,19,06,24,14.60
2016,04,19,06,25,14.60
2016,04,19,06,26,14.50
2016,04,19,06,27,14.50
2016,04,19,06,28,14.50
2016,04,19,06,29,14.50
2016,04,19,06,30,14.40
2016,04,19,06,31,14.40
2016,04,19,06,32,14.30
2016,04,19,06,33,14.30
2016,04,19,06,34,14.30
2016,04,19,06,35,14.30
2016,04,19,06,36,14.30
2016,04,19,06,37,14.30
2016,04,19,06,38,14.30
2016,04,19,06,39,14.30
2016,04,19,06,40,14.30
2016,04,19,06,41,14.30
2016,04,19,06,42,14.30
2016,04,19,06,43,14.40
2016,04,19,06,44,14.40
2016,04,19,06,45,14.40
2016,04,19,06,46,14.40
2016,04,19,06,47,14.40
2016,04,19,06,48,14.40
2016,04,19,06,49,14.40
2016,04,19,06,50,14.40
2016,04,19,06,51,14.30
2016,04,19,06,52,14.30
2016,04,19,06,53,14.20
2016,04,19,06,54,14.20
2016,04,19,06,55,14.10
2016,04,19,06,56,14.10
2016,04,19,06,57,14.00
2016,04,19,06,58,14.00
2016,04,19,06,59,14.00
2016,04,19,07,00,14.00
2016,04,19,07,01,14.00
2016,04,19,07,02,14.00
2016,04,19,07,03,14.00
2016,04,19,07,04,14.00
2016,04,19,07,05,14.00
2016,04,19,07,06,14.00
2016,04,19,07,07,14.00
2016,04,19,07,08,14.00
2016,04,19,07,09,14.00
2016,04,19,07,10,14.00
2016,04,19,07,11,14.10
2016,04,19,07,12,14.10
2016,04,19,07,13,14.10
2016,04,19,07,14,14.10
2016,04,19,07,15,14.10
2016,04,19,07,16,14.10
2016,04,19,07,17,14.10
2016,04,19,07,18,14.10
2016,04,19,07,19,14.10
2016,04,19,07,20,14.10
2016,04,19,07,21,14.10
2016,04,19,07,22,14.10
2016,04,19,07,23,14.10
2016,04,19,07,24,14.10
2016,04,19,07,25,14.10
2016,04,19,07,26,14.10
2016,04,19,07,27,14.00
2016,04,19,07,28,14.00
2016,04,19,07,29,14.00
2016,04,19,07,30,13.90
2016,04,19,07,31,13.90
2016,04,19,07,32,13.90
2016,04,19,07,33,13.90
2016,04,19,07,34,13.90
2016,04,19,07,35,13.80
2016,04,19,07,36,13.80
2016,04,19,07,37,13.80
2016,04,19,07,38,13.80
2016,04,19,07,39,13.90
2016,04,19,07,40,13.90
2016,04,19,07,41,13.90
2016,04,19,07,42,13.90
2016,04,19,07,43,14.00
2016,04,19,07,44,14.00
2016,04,19,07,45,14.10
2016,04,19,07,46,14.20
2016,04,19,07,47,14.20
2016,04,19,07,48,14.30
2016,04,19,07,49,14.40
2016,04,19,07,50,14.50
2016,04,19,07,51,14.60
2016,04,19,07,52,14.60
2016,04,19,07,53,14.70
2016,04,19,07,54,14.80
2016,04,19,07,55,14.80
2016,04,19,07,56,14.90
2016,04,19,07,57,15.00
2016,04,19,07,58,15.10
2016,04,19,07,59,15.10
2016,04,19,08,00,15.20
2016,04,19,08,01,15.30
2016,04,19,08,02,15.30
2016,04,19,08,03,15.30
2016,04,19,08,04,15.40
2016,04,19,08,05,15.50
2016,04,19,08,06,15.50
2016,04,19,08,07,15.60
2016,04,19,08,08,15.60
2016,04,19,08,09,15.70
2016,04,19,08,10,15.80
2016,04,19,08,11,15.80
2016,04,19,08,12,15.80
2016,04,19,08,13,15.80
2016,04,19,08,14,15.90
2016,04,19,08,15,16.00
2016,04,19,08,16,16.10
2016,04,19,08,17,16.10
2016,04,19,08,18,16.10
2016,04,19,08,19,16.20
2016,04,19,08,20,16.20
2016,04,19,08,21,16.30
2016,04,19,08,22,16.40
2016,04,19,08,23,16.40
2016,04,19,08,24,16.50
2016,04,19,08,25,16.60
2016,04,19,08,26,16.70
2016,04,19,08,27,16.70
2016,04,19,08,28,16.70
2016,04,19,08,29,16.70
2016,04,19,08,30,16.80
2016,04,19,08,31,16.80
2016,04,19,08,32,16.80
2016,04,19,08,33,16.90
2016,04,19,08,34,16.90
2016,04,19,08,35,16.90
2016,04,19,08,36,17.00
2016,04,19,08,37,17.10
2016,04,19,08,38,17.20
2016,04,19,08,39,17.30
2016,04,19,08,40,17.30
2016,04,19,08,41,17.50
2016,04,19,08,42,17.50
2016,04,19,08,43,17.70
2016,04,19,08,44,17.80
2016,04,19,08,45,17.90
2016,04,19,08,46,17.90
2016,04,19,08,47,18.00
2016,04,19,08,48,18.20
2016,04,19,08,49,18.20
2016,04,19,08,50,18.30
2016,04,19,08,51,18.40
2016,04,19,08,52,18.50
2016,04,19,08,53,18.50
2016,04,19,08,54,18.60
2016,04,19,08,55,18.60
2016,04,19,08,56,18.70
2016,04,19,08,57,18.70
2016,04,19,08,58,18.80
2016,04,19,08,59,18.80
2016,04,19,09,00,18.80
2016,04,19,09,01,18.80
2016,04,19,09,02,18.80
2016,04,19,09,03,18.80
2016,04,19,09,04,18.80
2016,04,19,09,05,18.80
2016,04,19,09,06,18.80
2016,04,19,09,07,18.90
2016,04,19,09,08,18.90
2016,04,19,09,09,18.90
2016,04,19,09,10,18.90
2016,04,19,09,11,18.90
2016,04,19,09,12,18.90
2016,04,19,09,13,18.90
2016,04,19,09,14,18.90
2016,04,19,09,15,19.00
2016,04,19,09,16,19.10
2016,04,19,09,17,19.10
2016,04,19,09,18,19.20
2016,04,19,09,19,19.20
2016,04,19,09,20,19.30
2016,04,19,09,21,19.30
2016,04,19,09,22,19.30
2016,04,19,09,23,19.30
2016,04,19,09,24,19.30
2016,04,19,09,25,19.40
2016,04,19,09,26,19.50
2016,04,19,09,27,19.50
2016,04,19,09,28,19.60
2016,04,19,09,29,19.70
2016,04,19,09,30,19.90
2016,04,19,09,31,19.90
2016,04,19,09,32,19.90
2016,04,19,09,33,19.90
2016,04,19,09,34,19.80
2016,04,19,09,35,19.80
2016,04,19,09,36,19.80
2016,04,19,09,37,19.80
2016,04,19,09,38,19.90
2016,04,19,09,39,19.80
2016,04,19,09,40,19.80
2016,04,19,09,41,19.80
2016,04,19,09,42,19.80
2016,04,19,09,43,19.90
2016,04,19,09,44,19.90
2016,04,19,09,45,19.90
2016,04,19,09,46,19.80
2016,04,19,09,47,19.80
2016,04,19,09,48,19.80
2016,04,19,09,49,19.80
2016,04,19,09,50,19.90
2016,04,19,09,51,19.90
2016,04,19,09,52,20.00
2016,04,19,09,53,20.10
2016,04,19,09,54,20.00
2016,04,19,09,55,19.90
2016,04,19,09,56,19.90
2016,04,19,09,57,19.80
2016,04,19,09,58,19.80
2016,04,19,09,59,19.80
2016,04,19,10,00,19.90
2016,04,19,10,01,19.90
2016,04,19,10,02,19.70
2016,04,19,10,03,19.70
2016,04,19,10,04,19.70
2016,04,19,10,05,19.70
2016,04,19,10,06,19.70
2016,04,19,10,07,19.70
2016,04,19,10,08,19.80
2016,04,19,10,09,19.80
2016,04,19,10,10,19.80
2016,04,19,10,11,19.80
2016,04,19,10,12,19.90
2016,04,19,10,13,19.90
2016,04,19,10,14,19.80
2016,04,19,10,15,19.80
2016,04,19,10,16,19.90
2016,04,19,10,17,19.90
2016,04,19,10,18,19.90
2016,04,19,10,19,19.90
2016,04,19,10,20,19.90
2016,04,19,10,21,19.90
2016,04,19,10,22,20.10
2016,04,19,10,23,20.10
2016,04,19,10,24,20.20
2016,04,19,10,25,20.20
2016,04,19,10,26,20.20
2016,04,19,10,27,20.20
2016,04,19,10,28,20.20
2016,04,19,10,29,20.20
2016,04,19,10,30,20.20
2016,04,19,10,31,20.30
2016,04,19,10,32,20.30
2016,04,19,10,33,20.30
2016,04,19,10,34,20.30
2016,04,19,10,35,20.20
2016,04,19,10,36,20.20
2016,04,19,10,37,20.20
2016,04,19,10,38,20.30
2016,04,19,10,39,20.40
2016,04,19,10,40,20.60
2016,04,19,10,41,20.70
2016,04,19,10,42,20.80
2016,04,19,10,43,20.80
2016,04,19,10,44,20.80
2016,04,19,10,45,20.80
2016,04,19,10,46,20.80
2016,04,19,10,47,20.80
2016,04,19,10,48,20.70
2016,04,19,10,49,20.70
2016,04,19,10,50,20.60
2016,04,19,10,51,20.60
2016,04,19,10,52,20.70
2016,04,19,10,53,20.70
2016,04,19,10,54,20.70
2016,04,19,10,55,20.70
2016,04,19,10,56,20.80
2016,04,19,10,57,20.80
2016,04,19,10,58,20.80
2016,04,19,10,59,20.70
2016,04,19,11,00,20.60
2016,04,19,11,01,20.50
2016,04,19,11,02,20.60
2016,04,19,11,03,20.60
2016,04,19,11,04,20.60
2016,04,19,11,05,20.70
2016,04,19,11,06,20.90
2016,04,19,11,07,21.00
2016,04,19,11,08,21.10
2016,04,19,11,09,21.00
2016,04,19,11,10,20.90
2016,04,19,11,11,20.80
2016,04,19,11,12,20.80
2016,04,19,11,13,20.70
2016,04,19,11,14,20.70
2016,04,19,11,15,20.80
2016,04,19,11,16,20.90
2016,04,19,11,17,21.00
2016,04,19,11,18,21.10
2016,04,19,11,19,21.20
2016,04,19,11,20,21.20
2016,04,19,11,21,21.40
2016,04,19,11,22,21.40
2016,04,19,11,23,21.40
2016,04,19,11,24,21.30
2016,04,19,11,25,21.40
2016,04,19,11,26,21.40
2016,04,19,11,27,21.40
2016,04,19,11,28,21.40
2016,04,19,11,29,21.30
2016,04,19,11,30,21.30
2016,04,19,11,31,21.30
2016,04,19,11,32,21.30
2016,04,19,11,33,21.30
2016,04,19,11,34,21.30
2016,04,19,11,35,21.40
2016,04,19,11,36,21.50
2016,04,19,11,37,21.60
2016,04,19,11,38,21.70
2016,04,19,11,39,21.80
2016,04,19,11,40,21.80
2016,04,19,11,41,21.70
2016,04,19,11,42,21.80
2016,04,19,11,43,21.80
2016,04,19,11,44,21.70
2016,04,19,11,45,21.80
2016,04,19,11,46,21.80
2016,04,19,11,47,21.80
2016,04,19,11,48,21.80
2016,04,19,11,49,21.80
2016,04,19,11,50,21.90
2016,04,19,11,51,22.00
2016,04,19,11,52,22.10
2016,04,19,11,53,22.30
2016,04,19,11,54,22.40
2016,04,19,11,55,22.40
2016,04,19,11,56,22.50
2016,04,19,11,57,22.50
2016,04,19,11,58,22.50
2016,04,19,11,59,22.40
2016,04,19,12,00,22.50
2016,04,19,12,01,22.60
2016,04,19,12,02,22.70
2016,04,19,12,03,22.60
2016,04,19,12,04,22.50
2016,04,19,12,05,22.30
2016,04,19,12,06,22.20
2016,04,19,12,07,22.20
2016,04,19,12,08,22.30
2016,04,19,12,09,22.40
2016,04,19,12,10,22.40
2016,04,19,12,11,22.30
2016,04,19,12,12,22.40
2016,04,19,12,13,22.40
2016,04,19,12,14,22.40
2016,04,19,12,15,22.50
2016,04,19,12,16,22.60
2016,04,19,12,17,22.60
2016,04,19,12,18,22.50
2016,04,19,12,19,22.40
2016,04,19,12,20,22.50
2016,04,19,12,21,22.60
2016,04,19,12,22,22.60
2016,04,19,12,23,22.60
2016,04,19,12,24,22.60
2016,04,19,12,25,22.60
2016,04,19,12,26,22.50
2016,04,19,12,27,22.70
2016,04,19,12,28,22.90
2016,04,19,12,29,23.00
2016,04,19,12,30,23.00
2016,04,19,12,31,22.90
2016,04,19,12,32,23.00
2016,04,19,12,33,23.10
2016,04,19,12,34,23.10
2016,04,19,12,35,23.20
2016,04,19,12,36,23.30
2016,04,19,12,37,23.50
2016,04,19,12,38,23.60
2016,04,19,12,39,23.60
2016,04,19,12,40,23.60
2016,04,19,12,41,23.60
2016,04,19,12,42,23.50
2016,04,19,12,43,23.40
2016,04,19,12,44,23.30
2016,04,19,12,45,23.20
2016,04,19,12,46,23.30
2016,04,19,12,47,23.30
2016,04,19,12,48,23.30
2016,04,19,12,49,23.40
2016,04,19,12,50,23.50
2016,04,19,12,51,23.70
2016,04,19,12,52,23.70
2016,04,19,12,53,23.70
2016,04,19,12,54,23.60
2016,04,19,12,55,23.50
2016,04,19,12,56,23.60
2016,04,19,12,57,23.60
2016,04,19,12,58,23.70
2016,04,19,12,59,23.70
2016,04,19,13,00,23.70
2016,04,19,13,01,23.70
2016,04,19,13,02,23.80
2016,04,19,13,03,23.80
2016,04,19,13,04,24.00
2016,04,19,13,05,24.10
2016,04,19,13,06,24.10
2016,04,19,13,07,24.10
2016,04,19,13,08,24.00
2016,04,19,13,09,23.90
2016,04,19,13,10,23.90
2016,04,19,13,11,23.90
2016,04,19,13,12,23.90
2016,04,19,13,13,23.90
2016,04,19,13,14,23.90
2016,04,19,13,15,23.90
2016,04,19,13,16,23.90
2016,04,19,13,17,23.90
2016,04,19,13,18,23.70
2016,04,19,13,19,23.60
2016,04,19,13,20,23.50
2016,04,19,13,21,23.40
2016,04,19,13,22,23.40
2016,04,19,13,23,23.40
2016,04,19,13,24,23.40
2016,04,19,13,25,23.40
2016,04,19,13,26,23.60
2016,04,19,13,27,23.70
2016,04,19,13,28,23.70
2016,04,19,13,29,23.50
2016,04,19,13,30,23.40
2016,04,19,13,31,23.30
2016,04,19,13,32,23.30
2016,04,19,13,33,23.30
2016,04,19,13,34,23.40
2016,04,19,13,35,23.50
2016,04,19,13,36,23.50
2016,04,19,13,37,23.30
2016,04,19,13,38,23.30
2016,04,19,13,39,23.30
2016,04,19,13,40,23.40
2016,04,19,13,41,23.50
2016,04,19,13,42,23.60
2016,04,19,13,43,23.70
2016,04,19,13,44,23.70
2016,04,19,13,45,23.70
2016,04,19,13,46,23.70
2016,04,19,13,47,23.70
2016,04,19,13,48,23.70
2016,04,19,13,49,23.80
2016,04,19,13,50,23.80
2016,04,19,13,51,23.60
2016,04,19,13,52,23.60
2016,04,19,13,53,23.50
2016,04,19,13,54,23.40
2016,04,19,13,55,23.40
2016,04,19,13,56,23.40
2016,04,19,13,57,23.40
2016,04,19,13,58,23.40
2016,04,19,13,59,23.40
2016,04,19,14,00,23.40
2016,04,19,14,01,23.30
2016,04,19,14,02,23.40
2016,04,19,14,03,23.40
2016,04,19,14,04,23.30
2016,04,19,14,05,23.30
2016,04,19,14,06,23.30
2016,04,19,14,07,23.30
2016,04,19,14,08,23.50
2016,04,19,14,09,23.80
2016,04,19,14,10,23.80
2016,04,19,14,11,23.80
2016,04,19,14,12,23.70
2016,04,19,14,13,23.60
2016,04,19,14,14,23.40
2016,04,19,14,15,23.30
2016,04,19,14,16,23.30
2016,04,19,14,17,23.40
2016,04,19,14,18,23.60
2016,04,19,14,19,23.70
2016,04,19,14,20,23.90
2016,04,19,14,21,23.90
2016,04,19,14,22,23.90
2016,04,19,14,23,23.90
2016,04,19,14,24,23.80
2016,04,19,14,25,23.80
2016,04,19,14,26,23.80
2016,04,19,14,27,23.90
2016,04,19,14,28,23.90
2016,04,19,14,29,23.90
2016,04,19,14,30,23.90
2016,04,19,14,31,23.90
2016,04,19,14,32,24.00
2016,04,19,14,33,24.10
2016,04,19,14,34,24.10
2016,04,19,14,35,24.10
2016,04,19,14,36,24.10
2016,04,19,14,37,24.10
2016,04,19,14,38,24.00
2016,04,19,14,39,23.90
2016,04,19,14,40,23.80
2016,04,19,14,41,23.80
2016,04,19,14,42,23.80
2016,04,19,14,43,24.00
2016,04,19,14,44,24.10
2016,04,19,14,45,24.10
2016,04,19,14,46,24.10
2016,04,19,14,47,24.10
2016,04,19,14,48,24.10
2016,04,19,14,49,24.10
2016,04,19,14,50,24.10
2016,04,19,14,51,24.10
2016,04,19,14,52,24.10
2016,04,19,14,53,24.10
2016,04,19,14,54,24.10
2016,04,19,14,55,24.20
2016,04,19,14,56,24.30
2016,04,19,14,57,24.20
2016,04,19,14,58,24.20
2016,04,19,14,59,24.20
2016,04,19,15,00,24.10
2016,04,19,15,01,24.10
2016,04,19,15,02,24.10
2016,04,19,15,03,24.10
2016,04,19,15,04,24.10
2016,04,19,15,05,24.30
2016,04,19,15,06,24.30
2016,04,19,15,07,24.30
2016,04,19,15,08,24.40
2016,04,19,15,09,24.50
2016,04,19,15,10,24.60
2016,04,19,15,11,24.70
2016,04,19,15,12,24.60
2016,04,19,15,13,24.50
2016,04,19,15,14,24.50
2016,04,19,15,15,24.60
2016,04,19,15,16,24.50
2016,04,19,15,17,24.40
2016,04,19,15,18,24.40
2016,04,19,15,19,24.40
2016,04,19,15,20,24.50
2016,04,19,15,21,24.50
2016,04,19,15,22,24.60
2016,04,19,15,23,24.60
2016,04,19,15,24,24.70
2016,04,19,15,25,24.80
2016,04,19,15,26,24.90
2016,04,19,15,27,24.90
2016,04,19,15,28,24.90
2016,04,19,15,29,25.00
2016,04,19,15,30,25.10
2016,04,19,15,31,25.20
2016,04,19,15,32,25.20
2016,04,19,15,33,25.40
2016,04,19,15,34,25.50
2016,04,19,15,35,25.60
2016,04,19,15,36,25.80
2016,04,19,15,37,25.90
2016,04,19,15,38,26.10
2016,04,19,15,39,26.30
2016,04,19,15,40,26.40
2016,04,19,15,41,26.40
2016,04,19,15,42,26.30
2016,04,19,15,43,26.20
2016,04,19,15,44,26.00
2016,04,19,15,45,26.00
2016,04,19,15,46,26.00
2016,04,19,15,47,25.90
2016,04,19,15,48,25.80
2016,04,19,15,49,25.70
2016,04,19,15,50,25.60
2016,04,19,15,51,25.60
2016,04,19,15,52,25.60
2016,04,19,15,53,25.60
2016,04,19,15,54,25.60
2016,04,19,15,55,25.60
2016,04,19,15,56,25.70
2016,04,19,15,57,25.90
2016,04,19,15,58,25.90
2016,04,19,15,59,25.80
2016,04,19,16,00,25.80
2016,04,19,16,01,25.70
2016,04,19,16,02,25.70
2016,04,19,16,03,25.80
2016,04,19,16,04,25.90
2016,04,19,16,05,25.90
2016,04,19,16,06,25.90
2016,04,19,16,07,25.90
2016,04,19,16,08,25.90
2016,04,19,16,09,26.00
2016,04,19,16,10,26.10
2016,04,19,16,11,26.20
2016,04,19,16,12,26.20
2016,04,19,16,13,26.20
2016,04,19,16,14,26.30
2016,04,19,16,15,26.30
2016,04,19,16,16,26.30
2016,04,19,16,17,26.20
2016,04,19,16,18,26.10
2016,04,19,16,19,26.10
2016,04,19,16,20,26.10
2016,04,19,16,21,26.10
2016,04,19,16,22,26.20
2016,04,19,16,23,26.20
2016,04,19,16,24,26.10
2016,04,19,16,25,26.20
2016,04,19,16,26,26.10
2016,04,19,16,27,26.20
2016,04,19,16,28,26.10
2016,04,19,16,29,26.10
2016,04,19,16,30,26.20
2016,04,19,16,31,26.10
2016,04,19,16,32,26.00
2016,04,19,16,33,25.90
2016,04,19,16,34,25.90
2016,04,19,16,35,25.90
2016,04,19,16,36,26.00
2016,04,19,16,37,26.10
2016,04,19,16,38,26.20
2016,04,19,16,39,26.20
2016,04,19,16,40,26.30
2016,04,19,16,41,26.20
2016,04,19,16,42,26.30
2016,04,19,16,43,26.30
2016,04,19,16,44,26.30
2016,04,19,16,45,26.20
2016,04,19,16,46,26.30
2016,04,19,16,47,26.30
2016,04,19,16,48,26.40
2016,04,19,16,49,26.40
2016,04,19,16,50,26.40
2016,04,19,16,51,26.40
2016,04,19,16,52,26.40
2016,04,19,16,53,26.40
2016,04,19,16,54,26.50
2016,04,19,16,55,26.50
2016,04,19,16,56,26.50
2016,04,19,16,57,26.60
2016,04,19,16,58,26.60
2016,04,19,16,59,26.60
2016,04,19,17,00,26.70
2016,04,19,17,01,26.80
2016,04,19,17,02,26.90
2016,04,19,17,03,26.90
2016,04,19,17,04,27.10
2016,04,19,17,05,27.10
2016,04,19,17,06,26.90
2016,04,19,17,07,26.90
2016,04,19,17,08,26.80
2016,04,19,17,09,26.80
2016,04,19,17,10,26.80
2016,04,19,17,11,26.70
2016,04,19,17,12,26.70
2016,04,19,17,13,26.70
2016,04,19,17,14,26.70
2016,04,19,17,15,26.60
2016,04,19,17,16,26.50
2016,04,19,17,17,26.40
2016,04,19,17,18,26.40
2016,04,19,17,19,26.30